"Pseudo-MPEC" for P12pwoz

Created 2026 Sep 2 10:35:06 UT using Find_Orb

Click here for an explanation of pseudo-MPECs

 
 Astrometry: 
     P12pwoz*0C2026 09 02.27155219 18 09.060-40 47 33.23   ~928Z 21.29wXNEOCPF51
     P12pwoz 0C2026 09 02.27943919 18 09.753-40 47 34.61   ~928Z 20.95wXNEOCPF51
     P12pwoz 0C2026 09 02.28760119 18 10.474-40 47 36.27   ~928Z 21.07wXNEOCPF51

Station data:
(F51) Pan-STARRS 1, Haleakala  (N20.707234 W156.255910)  US/Hawaii.
   Observers J. Herman, T. Lowe, P. Minguez, A. Schultz, I. Smith. Measurers
   K. Chambers, T. de Boer, J. Fairlamb, H. Gao, M. Huber, C.-C. Lin, E.
   Magnier, Y. Ramanjooloo, R. Wainscoat, R. Weryk. 1.8-m Ritchey-Chrétien +
   CCD.

Orbital elements:  P12pwoz
   Perihelion 2026 Jul 11.491183 +/- 50.9 TT = 11:47:18.2 (JD 2461232.991183)
Epoch 2026 Sep  2.0 TT = JDT 2461285.5   Earth MOID: 0.0084      AutoNEOCP
M   8.197937705 +/- 46              (J2000 ecliptic)
n   0.156124974 +/- 0.345           Peri.   45.836679 +/- 80
a   3.415763514 +/- 5.03            Node   142.050631 +/- 32
e   0.94720041 +/- 0.257            Incl.   71.907667 +/- 29
P   6.31294                H 20.54  G  0.15   U 12.0  SR
q 0.180350894 +/- 0.558    Q 6.651176134 +/- 35.6
From 3 observations 2026 Sept. 2 (23.1 min); mean residual 0".04
Residuals in arcseconds: 
260902 F51  .01+  .04-    260902 F51  .02-  .09+    260902 F51  .02+  .04-    

Ephemerides (geocentric):
Date (UTC) HH   RA             Dec           delta  r     elong  mag " sig PA
---- --------  ------------   ------------  ------ ------ -----  --- --------
2026 09 02 11  19 18 27.102   -40 47 50.04  .45647 1.3186 123.8 21.0  211 135
2026 09 02 12  19 18 31.139   -40 47 57.37  .45759 1.3194 123.8 21.0  228 129
2026 09 02 13  19 18 35.165   -40 48 04.61  .45871 1.3201 123.8 21.0  246 125
2026 09 02 14  19 18 39.181   -40 48 11.78  .45983 1.3208 123.7 21.0  263 121
2026 09 02 15  19 18 43.185   -40 48 18.86  .46095 1.3215 123.7 21.0  279 119
2026 09 02 16  19 18 47.179   -40 48 25.86  .46208 1.3223 123.7 21.0  295 117
2026 09 02 17  19 18 51.162   -40 48 32.78  .46320 1.3230 123.6 21.0  309 115
2026 09 02 18  19 18 55.134   -40 48 39.63  .46432 1.3237 123.6 21.0  323 113
2026 09 02 19  19 18 59.096   -40 48 46.39  .46545 1.3244 123.6 21.0  337 112
2026 09 02 20  19 19 03.047   -40 48 53.08  .46657 1.3252 123.6 21.1  350 111
2026 09 02 21  19 19 06.988   -40 48 59.69  .46769 1.3259 123.5 21.1  362 110
2026 09 02 22  19 19 10.919   -40 49 06.22  .46881 1.3266 123.5 21.1  374 109
2026 09 02 23  19 19 14.840   -40 49 12.68  .46994 1.3273 123.5 21.1  385 108
2026 09 03 00  19 19 18.751   -40 49 19.06  .47106 1.3280 123.5 21.1  396 108
2026 09 03 01  19 19 22.651   -40 49 25.36  .47218 1.3288 123.4 21.1  407 107
2026 09 03 02  19 19 26.542   -40 49 31.59  .47331 1.3295 123.4 21.1  417 107
2026 09 03 03  19 19 30.423   -40 49 37.75  .47443 1.3302 123.4 21.1  428 106
2026 09 03 04  19 19 34.294   -40 49 43.83  .47555 1.3309 123.4 21.1  438 106
2026 09 03 05  19 19 38.156   -40 49 49.84  .47668 1.3316 123.3 21.1  447 105
2026 09 03 06  19 19 42.008   -40 49 55.77  .47780 1.3324 123.3 21.1  457 105
2026 09 03 07  19 19 45.850   -40 50 01.64  .47892 1.3331 123.3 21.1  466 105
2026 09 03 08  19 19 49.683   -40 50 07.43  .48005 1.3338 123.2 21.1  476 104
2026 09 03 09  19 19 53.507   -40 50 13.15  .48117 1.3345 123.2 21.1  485 104
2026 09 03 10  19 19 57.321   -40 50 18.79  .48229 1.3352 123.2 21.1  494 104
2026 09 03 11  19 20 01.126   -40 50 24.37  .48342 1.3360 123.2 21.1  504 103
2026 09 03 12  19 20 04.922   -40 50 29.88  .48454 1.3367 123.1 21.2  513 103
2026 09 03 13  19 20 08.709   -40 50 35.31  .48567 1.3374 123.1 21.2  522 103
2026 09 03 14  19 20 12.487   -40 50 40.68  .48679 1.3381 123.1 21.2  531 102
2026 09 03 15  19 20 16.257   -40 50 45.98  .48792 1.3388 123.1 21.2  540 102
2026 09 03 16  19 20 20.017   -40 50 51.21  .48904 1.3396 123.0 21.2  549 102
2026 09 03 17  19 20 23.768   -40 50 56.37  .49016 1.3403 123.0 21.2  559 102
2026 09 03 18  19 20 27.511   -40 51 01.47  .49129 1.3410 123.0 21.2  568 101
2026 09 03 19  19 20 31.246   -40 51 06.50  .49241 1.3417 123.0 21.2  577 101
2026 09 03 20  19 20 34.971   -40 51 11.46  .49354 1.3424 122.9 21.2  587 101
2026 09 03 21  19 20 38.689   -40 51 16.35  .49466 1.3432 122.9 21.2  596 101
2026 09 03 22  19 20 42.397   -40 51 21.18  .49579 1.3439 122.9 21.2  606 101
2026 09 03 23  19 20 46.098   -40 51 25.94  .49691 1.3446 122.8 21.2  616 100
2026 09 04 00  19 20 49.790   -40 51 30.64  .49804 1.3453 122.8 21.2  626 100
2026 09 04 01  19 20 53.474   -40 51 35.28  .49916 1.3460 122.8 21.2  635 100
2026 09 04 02  19 20 57.150   -40 51 39.84  .50029 1.3467 122.8 21.2  646 100
2026 09 04 03  19 21 00.818   -40 51 44.35  .50141 1.3475 122.7 21.2  656 100
2026 09 04 04  19 21 04.477   -40 51 48.79  .50254 1.3482 122.7 21.2  666  99
2026 09 04 05  19 21 08.129   -40 51 53.17  .50366 1.3489 122.7 21.2  676  99
2026 09 04 06  19 21 11.773   -40 51 57.49  .50479 1.3496 122.7 21.3  687  99
2026 09 04 07  19 21 15.409   -40 52 01.74  .50591 1.3503 122.6 21.3  698  99
2026 09 04 08  19 21 19.037   -40 52 05.93  .50704 1.3510 122.6 21.3  708  99
2026 09 04 09  19 21 22.658   -40 52 10.06  .50816 1.3517 122.6 21.3  719  98
2026 09 04 10  19 21 26.271   -40 52 14.13  .50929 1.3525 122.6 21.3  730  98